Location: Mentone
(34.5413°N, 85.5351°W)
Time: 13:33:07
(UTC-05:00)

Okean O Rocket - Visible Passes

Search period start: 01 September 2014 00:00
Search period end: 11 September 2014 00:00
Orbit: 624 x 648 km, 98.0° (Epoch: 01 September)

Date Brightness Start Highest point End Pass type
(mag) Time Alt. Az. Time Alt. Az. Time Alt. Az.
01 Sep 2.8 03:38:31 10° NNE 03:41:17 38° NNE 03:41:17 38° NNE visible
02 Sep 2.5 04:00:51 10° N 04:03:45 40° NNW 04:03:45 40° NNW visible
03 Sep 4.6 02:48:02 10° NE 02:48:44 13° ENE 02:48:44 13° ENE visible
03 Sep 2.8 04:23:27 10° N 04:26:14 29° NW 04:26:14 29° NW visible
04 Sep 4.0 03:09:27 10° NE 03:11:12 20° NE 03:11:12 20° NE visible
04 Sep 3.3 04:46:26 10° NNW 04:48:42 18° NW 04:48:42 18° NW visible
05 Sep 3.4 03:31:23 10° NNE 03:33:41 29° NNE 03:33:41 29° NNE visible
05 Sep 3.7 05:10:33 10° NW 05:11:10 11° WNW 05:11:10 11° WNW visible
06 Sep 2.9 03:53:38 10° N 03:56:09 34° N 03:56:09 34° N visible
07 Sep 2.9 04:16:08 10° N 04:18:37 29° NNW 04:18:37 29° NNW visible
08 Sep 4.4 03:02:29 10° NE 03:03:35 16° NE 03:03:35 16° NE visible
08 Sep 3.2 04:38:58 10° NNW 04:41:05 20° NW 04:41:05 20° NW visible
09 Sep 3.8 03:24:17 10° NNE 03:26:03 23° NE 03:26:03 23° NE visible
09 Sep 3.7 05:02:28 10° NW 05:03:33 12° NW 05:03:33 12° NW visible
10 Sep 3.3 03:46:26 10° NNE 03:48:31 28° NNE 03:48:31 28° NNE visible
